TimeCDT,TemperatureF,Dew PointF,Humidity,Sea Level PressureIn,VisibilityMPH,Wind Direction,Wind SpeedMPH,Gust SpeedMPH,PrecipitationIn,Events,Conditions,WindDirDegrees,DateUTC
12:56 AM,53.1,46.9,80,29.97,10.0,Calm,Calm,-,N/A,,Clear,0,2013-10-11 05:56:00
1:56 AM,55.0,46.9,74,29.97,10.0,ESE,5.8,-,N/A,,Clear,110,2013-10-11 06:56:00
2:56 AM,53.1,46.9,80,29.97,10.0,ESE,4.6,-,N/A,,Clear,110,2013-10-11 07:56:00
3:56 AM,54.0,48.0,80,29.97,10.0,ESE,6.9,-,N/A,,Clear,110,2013-10-11 08:56:00
4:56 AM,54.0,48.0,80,29.97,10.0,East,6.9,-,N/A,,Clear,100,2013-10-11 09:56:00
5:56 AM,52.0,48.0,86,29.97,10.0,ESE,5.8,-,N/A,,Clear,110,2013-10-11 10:56:00
6:56 AM,52.0,48.9,89,29.97,10.0,ESE,8.1,-,N/A,,Clear,110,2013-10-11 11:56:00
7:56 AM,53.1,48.9,86,29.96,10.0,SE,5.8,-,N/A,,Clear,130,2013-10-11 12:56:00
8:56 AM,55.0,50.0,83,29.97,10.0,SE,5.8,-,N/A,,Partly Cloudy,130,2013-10-11 13:56:00
9:56 AM,59.0,52.0,78,29.96,10.0,SE,6.9,-,N/A,,Clear,130,2013-10-11 14:56:00
10:11 AM,60.8,53.6,77,29.94,10.0,SE,6.9,-,N/A,,Partly Cloudy,130,2013-10-11 15:11:00
10:56 AM,64.9,54.0,68,29.92,10.0,SE,11.5,-,N/A,,Clear,130,2013-10-11 15:56:00
11:56 AM,71.1,55.0,57,29.89,10.0,SE,10.4,-,N/A,,Clear,140,2013-10-11 16:56:00
12:56 PM,73.9,54.0,50,29.86,10.0,SSE,17.3,32.2,N/A,,Partly Cloudy,150,2013-10-11 17:56:00
1:56 PM,75.0,52.0,44,29.79,10.0,SE,21.9,35.7,N/A,,Clear,140,2013-10-11 18:56:00
2:56 PM,75.9,51.1,42,29.78,10.0,SSE,27.6,35.7,N/A,,Clear,150,2013-10-11 19:56:00
3:56 PM,75.0,52.0,44,29.76,10.0,SSE,17.3,34.5,N/A,,Clear,160,2013-10-11 20:56:00
4:56 PM,73.9,52.0,46,29.77,10.0,SSE,20.7,33.4,N/A,,Clear,150,2013-10-11 21:56:00
5:56 PM,72.0,53.1,51,29.77,10.0,SE,18.4,29.9,N/A,,Clear,140,2013-10-11 22:56:00
6:56 PM,71.1,53.1,53,29.78,10.0,SSE,16.1,-,N/A,,Overcast,150,2013-10-11 23:56:00
7:56 PM,71.1,53.1,53,29.78,10.0,SSE,16.1,25.3,N/A,,Overcast,150,2013-10-12 00:56:00
8:56 PM,70.0,52.0,53,29.76,10.0,SSE,13.8,26.5,N/A,,Mostly Cloudy,150,2013-10-12 01:56:00
9:56 PM,70.0,52.0,53,29.76,10.0,SSE,16.1,24.2,N/A,,Overcast,150,2013-10-12 02:56:00
10:56 PM,69.1,53.1,57,29.75,10.0,SSE,13.8,-,N/A,,Overcast,150,2013-10-12 03:56:00
11:56 PM,69.1,53.1,57,29.75,10.0,South,13.8,20.7,N/A,,Clear,170,2013-10-12 04:56:00